Location: Artiguedieu
(43.5000°N, 0.5454°E)
Time: 02:09:36
(UTC+00:00)

Transit 2A Rocket - Pass Details

Date: 31 July 2021
Orbit: 586 x 916 km, 66.7° (Epoch: 16 September)

Event Time Altitude Azimuth Distance (km) Brightness Sun altitude
Rises 23:54:15 0° 322° (NW) 3,297 9.1 -28.2°
Reaches altitude 10° 23:56:43 10° 315° (NW) 2,413 8.1 -28.2°
Enters shadow 00:01:03 39° 270° (W) 1,263 6.0 -28.2°
Maximum altitude 00:01:56 42° 247° (WSW) 1,218 - -28.2°
Drops below altitude 10° 00:07:29 10° 178° (S) 2,559 - -28.2°
Sets 00:10:10 0° 172° (S) 3,517 - -28.2°
